IRM560 OMDB-OIIE

Flight info

Callsign IRM560
Flight time 1h 46m
Altitude 37000
Route DAVMO M318 GABKO M317 RADEB M318 ASMUK W32 ROVAD G208 RADAL
Aircraft A310/H-SDFGHIM1RTUWXY/LB1

Departure

Time 2026-04-21 07:50
Airport Dubai International Airport (OMDB)

Arrival

Time 2026-04-21 09:36
Airport Imam Khomeini International Airport (OIIE)
Time Latitude Longitude Altitude Speed Heading
2026-04-21 06:56 25.26234 55.33972 27 ft 0 kts 302°
2026-04-21 07:26 25.26233 55.33972 24 ft 0 kts 302°
2026-04-21 07:31 25.26226 55.33985 28 ft 3 kts 302°
2026-04-21 07:31 25.26213 55.34007 25 ft 3 kts 302°
2026-04-21 07:31 25.26200 55.34030 25 ft 3 kts 302°
2026-04-21 07:32 25.26191 55.34048 24 ft 3 kts 277°
2026-04-21 07:32 25.26196 55.34068 24 ft 3 kts 216°
2026-04-21 07:32 25.26215 55.34081 25 ft 3 kts 211°
2026-04-21 07:32 25.26236 55.34095 24 ft 3 kts 211°
2026-04-21 07:33 25.26257 55.34109 27 ft 3 kts 211°
2026-04-21 07:33 25.26274 55.34121 26 ft 3 kts 211°
2026-04-21 07:33 25.26285 55.34128 26 ft 0 kts 211°
2026-04-21 07:36 25.26282 55.34126 26 ft 1 kts 211°
2026-04-21 07:36 25.26271 55.34119 26 ft 3 kts 211°
2026-04-21 07:37 25.26251 55.34111 27 ft 4 kts 192°
2026-04-21 07:37 25.26227 55.34116 24 ft 4 kts 158°
2026-04-21 07:37 25.26207 55.34136 27 ft 5 kts 130°
2026-04-21 07:37 25.26188 55.34170 27 ft 6 kts 121°
2026-04-21 07:38 25.26165 55.34212 27 ft 7 kts 121°
2026-04-21 07:38 25.26138 55.34263 27 ft 8 kts 117°
2026-04-21 07:38 25.26127 55.34327 27 ft 9 kts 89°
2026-04-21 07:38 25.26127 55.34400 27 ft 10 kts 90°
2026-04-21 07:39 25.26117 55.34479 26 ft 11 kts 111°
2026-04-21 07:39 25.26076 55.34554 27 ft 12 kts 121°
2026-04-21 07:39 25.26031 55.34634 27 ft 13 kts 121°
2026-04-21 07:39 25.25982 55.34722 27 ft 14 kts 123°
2026-04-21 07:40 25.25930 55.34814 27 ft 15 kts 122°
2026-04-21 07:40 25.25874 55.34912 27 ft 15 kts 122°
2026-04-21 07:40 25.25829 55.34996 25 ft 8 kts 114°
2026-04-21 07:40 25.25838 55.35046 26 ft 6 kts 50°
2026-04-21 07:41 25.25876 55.35073 27 ft 7 kts 31°
2026-04-21 07:41 25.25922 55.35103 27 ft 8 kts 30°
2026-04-21 07:41 25.25973 55.35136 27 ft 9 kts 30°
2026-04-21 07:41 25.26029 55.35172 28 ft 10 kts 30°
2026-04-21 07:42 25.26088 55.35212 28 ft 10 kts 32°
2026-04-21 07:42 25.26134 55.35252 29 ft 6 kts 60°
2026-04-21 07:42 25.26132 55.35301 29 ft 10 kts 114°
2026-04-21 07:42 25.26085 55.35386 28 ft 14 kts 121°
2026-04-21 07:43 25.26029 55.35484 29 ft 16 kts 121°
2026-04-21 07:43 25.25971 55.35592 29 ft 17 kts 121°
2026-04-21 07:43 25.25907 55.35706 29 ft 18 kts 122°
2026-04-21 07:43 25.25839 55.35824 27 ft 19 kts 122°
2026-04-21 07:44 25.25770 55.35950 29 ft 20 kts 120°
2026-04-21 07:44 25.25699 55.36081 29 ft 20 kts 126°
2026-04-21 07:44 25.25619 55.36214 29 ft 22 kts 124°
2026-04-21 07:44 25.25533 55.36367 29 ft 25 kts 121°
2026-04-21 07:45 25.25438 55.36542 30 ft 28 kts 121°
2026-04-21 07:45 25.25336 55.36719 29 ft 26 kts 123°
2026-04-21 07:45 25.25240 55.36889 30 ft 26 kts 121°
2026-04-21 07:45 25.25145 55.37059 31 ft 26 kts 122°
2026-04-21 07:46 25.25049 55.37229 29 ft 26 kts 122°
2026-04-21 07:46 25.24960 55.37387 31 ft 22 kts 122°
2026-04-21 07:46 25.24878 55.37534 31 ft 22 kts 123°
2026-04-21 07:46 25.24800 55.37672 29 ft 21 kts 121°
2026-04-21 07:47 25.24739 55.37782 30 ft 14 kts 122°
2026-04-21 07:47 25.24690 55.37870 30 ft 12 kts 122°
2026-04-21 07:47 25.24662 55.37932 30 ft 7 kts 95°
2026-04-21 07:47 25.24689 55.37968 31 ft 6 kts 30°
2026-04-21 07:48 25.24720 55.37988 32 ft 4 kts 31°
2026-04-21 07:48 25.24741 55.38002 34 ft 5 kts 31°
2026-04-21 07:48 25.24789 55.38029 35 ft 8 kts 15°
2026-04-21 07:48 25.24825 55.38006 35 ft 6 kts 301°
2026-04-21 07:49 25.24859 55.37940 36 ft 19 kts 300°
2026-04-21 07:49 25.25013 55.37657 35 ft 75 kts 300°
2026-04-21 07:49 25.25398 55.36955 36 ft 140 kts 301°
2026-04-21 07:49 25.26004 55.35879 170 ft 181 kts 301°
2026-04-21 07:50 25.26676 55.34664 831 ft 189 kts 302°
2026-04-21 07:50 25.27387 55.33385 1528 ft 199 kts 301°
2026-04-21 07:50 25.28056 55.32059 2454 ft 195 kts 302°
2026-04-21 07:50 25.28736 55.30744 3231 ft 199 kts 304°
2026-04-21 07:51 25.29566 55.29534 3871 ft 200 kts 332°
2026-04-21 07:51 25.30861 55.29202 4771 ft 190 kts
2026-04-21 07:51 25.32199 55.29246 5414 ft 201 kts
2026-04-21 07:51 25.33628 55.29322 6064 ft 209 kts
2026-04-21 07:52 25.35076 55.29424 6844 ft 214 kts
2026-04-21 07:52 25.36581 55.29513 7578 ft 221 kts
2026-04-21 07:52 25.38163 55.29609 8178 ft 234 kts
2026-04-21 07:52 25.39835 55.29814 8747 ft 249 kts 16°
2026-04-21 07:53 25.41483 55.30522 9450 ft 260 kts 22°
2026-04-21 07:53 25.43175 55.31362 10162 ft 271 kts 21°
2026-04-21 07:53 25.44985 55.32223 10596 ft 296 kts 21°
2026-04-21 07:53 25.46962 55.33151 11014 ft 319 kts 21°
2026-04-21 07:54 25.49039 55.34123 11549 ft 337 kts 21°
2026-04-21 07:54 25.51125 55.35412 12162 ft 352 kts 34°
2026-04-21 07:54 25.53098 55.37105 12854 ft 363 kts 38°
2026-04-21 07:54 25.55090 55.38901 13514 ft 374 kts 38°
2026-04-21 07:55 25.57166 55.40738 13987 ft 389 kts 37°
2026-04-21 07:55 25.59318 55.42591 14405 ft 402 kts 36°
2026-04-21 07:55 25.61555 55.44506 14981 ft 410 kts 36°
2026-04-21 07:55 25.63834 55.46461 15634 ft 415 kts 36°
2026-04-21 07:56 25.66135 55.48428 16296 ft 419 kts 36°
2026-04-21 07:56 25.68468 55.50399 16940 ft 424 kts 36°
2026-04-21 07:56 25.70812 55.52402 17575 ft 428 kts 35°
2026-04-21 07:56 25.73193 55.54418 18196 ft 433 kts 35°
2026-04-21 07:57 25.75565 55.56441 18711 ft 437 kts 36°
2026-04-21 07:57 25.77989 55.58504 19242 ft 441 kts 35°
2026-04-21 07:57 25.80437 55.60583 19776 ft 444 kts 35°
2026-04-21 07:57 25.82904 55.62683 20291 ft 448 kts 36°
2026-04-21 07:58 25.85383 55.64802 20832 ft 452 kts 35°
2026-04-21 07:58 25.87966 55.66814 21343 ft 455 kts 31°
2026-04-21 07:58 25.90615 55.68696 21855 ft 459 kts 30°
2026-04-21 07:58 25.93339 55.70583 22376 ft 463 kts 29°
2026-04-21 07:59 25.96082 55.72477 22889 ft 467 kts 30°
2026-04-21 07:59 25.98844 55.74428 23399 ft 472 kts 30°
2026-04-21 07:59 26.01618 55.76407 23848 ft 476 kts 30°
2026-04-21 07:59 26.04427 55.78388 24304 ft 480 kts 30°
2026-04-21 08:00 26.07295 55.80289 24768 ft 480 kts 22°
2026-04-21 08:00 26.10491 55.81272 25247 ft 474 kts
2026-04-21 08:00 26.13742 55.81020 25745 ft 466 kts 343°
2026-04-21 08:00 26.16859 55.80015 26246 ft 467 kts 340°
2026-04-21 08:01 26.20068 55.79285 26734 ft 477 kts 353°
2026-04-21 08:01 26.23412 55.79544 27255 ft 486 kts
2026-04-21 08:01 26.26727 55.80336 27882 ft 487 kts 10°
2026-04-21 08:02 26.33275 55.82028 29253 ft 482 kts
2026-04-21 08:02 26.36564 55.82747 29974 ft 479 kts
2026-04-21 08:02 26.39839 55.83429 30578 ft 477 kts
2026-04-21 08:02 26.43104 55.84105 31178 ft 475 kts
2026-04-21 08:03 26.46341 55.84767 31776 ft 473 kts
2026-04-21 08:03 26.49580 55.85427 32365 ft 471 kts
2026-04-21 08:03 26.52798 55.86105 32946 ft 470 kts
2026-04-21 08:03 26.55997 55.86829 33539 ft 468 kts
2026-04-21 08:04 26.59187 55.87555 34075 ft 466 kts
2026-04-21 08:04 26.62353 55.88264 34624 ft 463 kts
2026-04-21 08:04 26.65491 55.88961 35210 ft 458 kts
2026-04-21 08:04 26.68566 55.89651 35778 ft 454 kts
2026-04-21 08:05 26.71651 55.90363 36315 ft 450 kts
2026-04-21 08:05 26.74717 55.91041 36661 ft 451 kts
2026-04-21 08:05 26.77808 55.91632 36760 ft 446 kts 360°
2026-04-21 08:06 26.83911 55.92388 36843 ft 438 kts 358°
2026-04-21 08:06 26.89987 55.93062 36841 ft 437 kts 358°
2026-04-21 08:07 26.96007 55.93817 36840 ft 437 kts 358°
2026-04-21 08:07 27.02054 55.94556 36840 ft 437 kts 358°
2026-04-21 08:08 27.08118 55.95301 36852 ft 437 kts 358°
2026-04-21 08:08 27.14147 55.96054 36861 ft 438 kts 358°
2026-04-21 08:09 27.20216 55.96804 36862 ft 438 kts 358°
2026-04-21 08:09 27.26288 55.97548 36866 ft 439 kts 358°
2026-04-21 08:10 27.32339 55.98289 36869 ft 440 kts 358°
2026-04-21 08:10 27.38444 55.99044 36877 ft 441 kts 358°
2026-04-21 08:11 27.44505 55.99800 36893 ft 440 kts 358°
2026-04-21 08:11 27.50614 56.00564 36903 ft 441 kts 358°
2026-04-21 08:12 27.56719 56.01315 36912 ft 441 kts 358°
2026-04-21 08:12 27.62837 56.02077 36923 ft 441 kts 358°
2026-04-21 08:13 27.68913 56.02833 36942 ft 442 kts 358°
2026-04-21 08:13 27.74045 56.03461 36918 ft 443 kts 358°
2026-04-21 08:14 27.81176 56.04358 36933 ft 444 kts 358°
2026-04-21 08:14 27.86285 56.04994 36967 ft 444 kts 358°
2026-04-21 08:15 27.92446 56.05760 36974 ft 445 kts 358°
2026-04-21 08:15 27.98601 56.06524 36983 ft 445 kts 358°
2026-04-21 08:16 28.04732 56.07306 36986 ft 445 kts 358°
2026-04-21 08:16 28.10889 56.08065 36997 ft 445 kts 358°
2026-04-21 08:17 28.17057 56.08810 36987 ft 441 kts 353°
2026-04-21 08:17 28.20011 56.08412 37015 ft 418 kts 336°
2026-04-21 08:17 28.22744 56.07377 37011 ft 414 kts 332°
2026-04-21 08:18 28.28192 56.05261 36996 ft 419 kts 335°
2026-04-21 08:18 28.33863 56.03537 37000 ft 422 kts 338°
2026-04-21 08:19 28.39576 56.01879 37013 ft 423 kts 338°
2026-04-21 08:19 28.45342 56.00403 37019 ft 420 kts 335°
2026-04-21 08:20 28.50939 55.98508 37038 ft 421 kts 336°
2026-04-21 08:20 28.56582 55.96781 37051 ft 422 kts 336°
2026-04-21 08:21 28.62267 55.95090 37065 ft 423 kts 336°
2026-04-21 08:21 28.67974 55.93404 37068 ft 423 kts 337°
2026-04-21 08:22 28.73634 55.91696 37078 ft 423 kts 336°
2026-04-21 08:22 28.79341 55.89972 37086 ft 423 kts 336°
2026-04-21 08:23 28.85056 55.88260 37093 ft 424 kts 336°
2026-04-21 08:23 28.90723 55.86526 37094 ft 424 kts 336°
2026-04-21 08:24 28.96437 55.84792 37098 ft 424 kts 336°
2026-04-21 08:24 29.02147 55.83070 37101 ft 424 kts 336°
2026-04-21 08:25 29.07814 55.81337 37104 ft 424 kts 336°
2026-04-21 08:25 29.13531 55.79609 37109 ft 424 kts 336°
2026-04-21 08:26 29.19242 55.77880 37098 ft 424 kts 336°
2026-04-21 08:26 29.24960 55.76155 37099 ft 424 kts 336°
2026-04-21 08:27 29.30669 55.74442 37093 ft 425 kts 336°
2026-04-21 08:27 29.36344 55.72711 37090 ft 424 kts 335°
2026-04-21 08:28 29.42055 55.70973 37097 ft 423 kts 335°
2026-04-21 08:28 29.47753 55.69229 37096 ft 424 kts 335°
2026-04-21 08:29 29.53419 55.67490 37097 ft 424 kts 335°
2026-04-21 08:29 29.58895 55.65283 37089 ft 409 kts 324°
2026-04-21 08:30 29.63869 55.62147 37085 ft 407 kts 323°
2026-04-21 08:30 29.68901 55.59171 37089 ft 410 kts 324°
2026-04-21 08:31 29.74032 55.56268 37080 ft 410 kts 324°
2026-04-21 08:31 29.79135 55.53323 37079 ft 410 kts 324°
2026-04-21 08:32 29.84241 55.50379 37074 ft 410 kts 324°
2026-04-21 08:32 29.89317 55.47451 37075 ft 410 kts 324°
2026-04-21 08:33 29.94427 55.44518 37064 ft 410 kts 324°
2026-04-21 08:33 29.99537 55.41557 37055 ft 410 kts 324°
2026-04-21 08:34 30.04614 55.38623 37051 ft 411 kts 324°
2026-04-21 08:34 30.09737 55.35675 37057 ft 411 kts 324°
2026-04-21 08:35 30.14868 55.32734 37051 ft 412 kts 324°
2026-04-21 08:35 30.20010 55.29795 37056 ft 412 kts 323°
2026-04-21 08:36 30.25112 55.26827 37031 ft 412 kts 324°
2026-04-21 08:36 30.30235 55.23846 37047 ft 412 kts 324°
2026-04-21 08:37 30.35374 55.20859 37041 ft 412 kts 323°
2026-04-21 08:37 30.40516 55.17879 37026 ft 412 kts 323°
2026-04-21 08:38 30.45643 55.14881 37018 ft 413 kts 323°
2026-04-21 08:38 30.50753 55.11909 37015 ft 413 kts 323°
2026-04-21 08:39 30.55904 55.08917 36992 ft 414 kts 323°
2026-04-21 08:39 30.61059 55.05922 36992 ft 414 kts 323°
2026-04-21 08:40 30.66215 55.02928 36983 ft 414 kts 323°
2026-04-21 08:40 30.71365 54.99905 36977 ft 414 kts 323°
2026-04-21 08:41 30.76498 54.96900 36970 ft 415 kts 322°
2026-04-21 08:41 30.81643 54.93823 36960 ft 416 kts 323°
2026-04-21 08:42 30.86788 54.90789 36949 ft 416 kts 322°
2026-04-21 08:42 30.91964 54.87734 36937 ft 417 kts 322°
2026-04-21 08:43 30.97156 54.84651 36934 ft 419 kts 323°
2026-04-21 08:43 31.02362 54.81560 36917 ft 420 kts 322°
2026-04-21 08:44 31.07579 54.78455 36916 ft 421 kts 322°
2026-04-21 08:44 31.12781 54.75367 36910 ft 423 kts 322°
2026-04-21 08:45 31.18037 54.72261 36900 ft 424 kts 322°
2026-04-21 08:45 31.23308 54.69152 36898 ft 425 kts 322°
2026-04-21 08:46 31.28600 54.66022 36892 ft 425 kts 322°
2026-04-21 08:46 31.33886 54.62858 36891 ft 427 kts 322°
2026-04-21 08:47 31.39154 54.59700 36887 ft 428 kts 322°
2026-04-21 08:47 31.44458 54.56520 36857 ft 429 kts 322°
2026-04-21 08:48 31.49768 54.53311 36859 ft 429 kts 322°
2026-04-21 08:48 31.55067 54.50148 36853 ft 429 kts 322°
2026-04-21 08:49 31.60399 54.46948 36845 ft 430 kts 322°
2026-04-21 08:49 31.65740 54.43730 36834 ft 430 kts 322°
2026-04-21 08:49 31.68407 54.42150 36707 ft 428 kts 322°
2026-04-21 08:50 31.71053 54.40535 36799 ft 430 kts 322°
2026-04-21 08:50 31.76378 54.37314 36823 ft 431 kts 322°
2026-04-21 08:51 31.81713 54.34096 36825 ft 431 kts 322°
2026-04-21 08:51 31.87021 54.30899 36822 ft 431 kts 322°
2026-04-21 08:52 31.92609 54.28124 36833 ft 448 kts 335°
2026-04-21 08:52 31.98802 54.26718 36814 ft 455 kts 339°
2026-04-21 08:53 32.05005 54.25285 36805 ft 452 kts 338°
2026-04-21 08:53 32.11123 54.23702 36799 ft 453 kts 338°
2026-04-21 08:54 32.17289 54.22148 36793 ft 453 kts 337°
2026-04-21 08:54 32.23469 54.20566 36801 ft 454 kts 338°
2026-04-21 08:55 32.29651 54.18981 36801 ft 454 kts 338°
2026-04-21 08:55 32.35841 54.17399 36793 ft 454 kts 337°
2026-04-21 08:56 32.42005 54.15780 36792 ft 454 kts 337°
2026-04-21 08:56 32.48190 54.14142 36782 ft 456 kts 338°
2026-04-21 08:57 32.54348 54.12506 36784 ft 456 kts 338°
2026-04-21 08:57 32.60541 54.10865 36770 ft 456 kts 338°
2026-04-21 08:58 32.66757 54.09229 36771 ft 456 kts 337°
2026-04-21 08:58 32.72964 54.07584 36770 ft 457 kts 338°
2026-04-21 08:59 32.79132 54.05939 36772 ft 457 kts 338°
2026-04-21 08:59 32.85345 54.04283 36772 ft 457 kts 338°
2026-04-21 09:00 32.91590 54.02683 36773 ft 459 kts 339°
2026-04-21 09:00 32.96799 54.01391 36786 ft 459 kts 338°
2026-04-21 09:01 33.03054 53.99825 36788 ft 460 kts 339°
2026-04-21 09:01 33.09349 53.98239 36782 ft 462 kts 339°
2026-04-21 09:02 33.15601 53.96662 36788 ft 462 kts 339°
2026-04-21 09:02 33.21911 53.95113 36803 ft 464 kts 340°
2026-04-21 09:03 33.31495 53.93077 36805 ft 465 kts 340°
2026-04-21 09:03 33.37831 53.91703 36807 ft 466 kts 341°
2026-04-21 09:04 33.44228 53.90308 36804 ft 467 kts 341°
2026-04-21 09:04 33.50624 53.88923 36810 ft 466 kts 340°
2026-04-21 09:05 33.56567 53.86566 36836 ft 429 kts 313°
2026-04-21 09:05 33.58549 53.84115 36848 ft 406 kts 297°
2026-04-21 09:05 33.60156 53.81310 36812 ft 408 kts 297°
2026-04-21 09:06 33.63975 53.76100 36807 ft 423 kts 308°
2026-04-21 09:06 33.68411 53.71360 36815 ft 427 kts 309°
2026-04-21 09:07 33.72811 53.66632 36823 ft 427 kts 308°
2026-04-21 09:07 33.77190 53.61799 36819 ft 428 kts 309°
2026-04-21 09:08 33.81590 53.56970 36814 ft 428 kts 308°
2026-04-21 09:08 33.85962 53.52166 36816 ft 428 kts 308°
2026-04-21 09:09 33.90367 53.47320 36821 ft 428 kts 308°
2026-04-21 09:09 33.94775 53.42463 36813 ft 429 kts 308°
2026-04-21 09:10 33.99154 53.37629 36807 ft 429 kts 309°
2026-04-21 09:10 34.03544 53.32758 36821 ft 429 kts 309°
2026-04-21 09:11 34.07950 53.27885 36813 ft 430 kts 308°
2026-04-21 09:11 34.12362 53.22994 36812 ft 430 kts 308°
2026-04-21 09:12 34.16772 53.18097 36815 ft 430 kts 309°
2026-04-21 09:12 34.21145 53.13216 36808 ft 431 kts 309°
2026-04-21 09:13 34.25598 53.08258 36820 ft 436 kts 308°
2026-04-21 09:13 34.30072 53.03269 36812 ft 438 kts 308°
2026-04-21 09:14 34.34555 52.98262 36818 ft 439 kts 309°
2026-04-21 09:14 34.39023 52.93264 36799 ft 439 kts 309°
2026-04-21 09:15 34.43471 52.88262 36387 ft 437 kts 309°
2026-04-21 09:15 34.45754 52.85709 35107 ft 452 kts 308°
2026-04-21 09:15 34.48071 52.83100 34445 ft 453 kts 309°
2026-04-21 09:16 34.50351 52.80561 33878 ft 450 kts 309°
2026-04-21 09:16 34.52645 52.77993 33262 ft 447 kts 308°
2026-04-21 09:16 34.54927 52.75443 32653 ft 442 kts 308°
2026-04-21 09:16 34.57181 52.72935 32100 ft 438 kts 308°
2026-04-21 09:17 34.59420 52.70460 31524 ft 433 kts 308°
2026-04-21 09:17 34.61619 52.67990 30952 ft 427 kts 308°
2026-04-21 09:17 34.63793 52.65539 30377 ft 423 kts 307°
2026-04-21 09:17 34.65924 52.63147 29690 ft 421 kts 307°
2026-04-21 09:18 34.68064 52.60747 29108 ft 415 kts 308°
2026-04-21 09:18 34.70169 52.58371 28545 ft 408 kts 308°
2026-04-21 09:18 34.72237 52.56021 28030 ft 402 kts 308°
2026-04-21 09:18 34.74255 52.53713 27731 ft 394 kts 308°
2026-04-21 09:19 34.76207 52.51471 27316 ft 387 kts 308°
2026-04-21 09:19 34.78176 52.49204 26838 ft 383 kts 308°
2026-04-21 09:19 34.80120 52.46992 26345 ft 380 kts 309°
2026-04-21 09:19 34.82023 52.44823 25840 ft 378 kts 309°
2026-04-21 09:20 34.83921 52.42636 25343 ft 375 kts 309°
2026-04-21 09:20 34.85805 52.40440 24901 ft 374 kts 309°
2026-04-21 09:20 34.87683 52.38235 24403 ft 374 kts 309°
2026-04-21 09:20 34.89547 52.36060 23847 ft 375 kts 310°
2026-04-21 09:21 34.91343 52.33768 23339 ft 368 kts 300°
2026-04-21 09:21 34.92563 52.31094 22948 ft 356 kts 290°
2026-04-21 09:21 34.93525 52.28339 22417 ft 354 kts 288°
2026-04-21 09:21 34.94485 52.25582 21876 ft 351 kts 289°
2026-04-21 09:22 34.95500 52.22886 21285 ft 350 kts 291°
2026-04-21 09:22 34.96563 52.20231 20933 ft 346 kts 291°
2026-04-21 09:22 34.97633 52.17608 20526 ft 344 kts 291°
2026-04-21 09:22 34.98701 52.14982 20104 ft 352 kts 291°
2026-04-21 09:23 34.99778 52.12327 19936 ft 345 kts 291°
2026-04-21 09:23 35.00853 52.09683 19842 ft 352 kts 291°
2026-04-21 09:23 35.01942 52.06994 19839 ft 354 kts 291°
2026-04-21 09:23 35.03039 52.04284 19581 ft 355 kts 291°
2026-04-21 09:24 35.04151 52.01528 18430 ft 369 kts 291°
2026-04-21 09:24 35.05283 51.98697 17626 ft 371 kts 291°
2026-04-21 09:24 35.06406 51.95883 16979 ft 367 kts 291°
2026-04-21 09:24 35.07522 51.93136 16332 ft 363 kts 292°
2026-04-21 09:25 35.08632 51.90380 15674 ft 360 kts 292°
2026-04-21 09:25 35.09729 51.87664 15204 ft 353 kts 292°
2026-04-21 09:25 35.10803 51.85009 14869 ft 341 kts 292°
2026-04-21 09:25 35.11822 51.82472 14858 ft 330 kts 291°
2026-04-21 09:26 35.12840 51.79933 14161 ft 336 kts 292°
2026-04-21 09:26 35.13888 51.77337 13501 ft 337 kts 292°
2026-04-21 09:26 35.14891 51.74843 13164 ft 324 kts 292°
2026-04-21 09:26 35.15879 51.72362 12571 ft 321 kts 292°
2026-04-21 09:27 35.16852 51.69940 12058 ft 314 kts 293°
2026-04-21 09:27 35.17807 51.67546 11285 ft 318 kts 293°
2026-04-21 09:27 35.18759 51.65118 10712 ft 315 kts 293°
2026-04-21 09:27 35.19695 51.62719 10266 ft 307 kts 293°
2026-04-21 09:28 35.20593 51.60366 9743 ft 303 kts 293°
2026-04-21 09:28 35.21494 51.58073 9713 ft 282 kts 294°
2026-04-21 09:28 35.22327 51.56004 9576 ft 265 kts 294°
2026-04-21 09:29 35.23114 51.54021 9321 ft 251 kts 294°
2026-04-21 09:29 35.23862 51.52136 8922 ft 248 kts 294°
2026-04-21 09:29 35.24616 51.50232 8519 ft 248 kts 294°
2026-04-21 09:29 35.25372 51.48350 8147 ft 246 kts 294°
2026-04-21 09:30 35.26105 51.46455 7735 ft 245 kts 293°
2026-04-21 09:30 35.26835 51.44588 7375 ft 242 kts 294°
2026-04-21 09:30 35.27566 51.42728 7101 ft 236 kts 295°
2026-04-21 09:30 35.28315 51.41015 7099 ft 222 kts 305°
2026-04-21 09:31 35.29576 51.39950 6787 ft 229 kts 343°
2026-04-21 09:31 35.31164 51.39692 6403 ft 232 kts 352°
2026-04-21 09:31 35.32754 51.39532 5985 ft 231 kts 349°
2026-04-21 09:31 35.34349 51.39301 5581 ft 229 kts 340°
2026-04-21 09:32 35.35601 51.38249 5253 ft 216 kts 301°
2026-04-21 09:32 35.36070 51.36540 4984 ft 207 kts 279°
2026-04-21 09:32 35.36321 51.34863 4901 ft 196 kts 279°
2026-04-21 09:32 35.36656 51.33275 4582 ft 192 kts 290°
2026-04-21 09:33 35.37091 51.31805 4671 ft 181 kts 287°
2026-04-21 09:33 35.37492 51.30309 4733 ft 184 kts 287°
2026-04-21 09:33 35.37897 51.28869 4812 ft 175 kts 287°
2026-04-21 09:33 35.38275 51.27511 4704 ft 157 kts 287°
2026-04-21 09:34 35.38610 51.26311 4798 ft 146 kts 288°
2026-04-21 09:34 35.38957 51.25054 4822 ft 164 kts 288°
2026-04-21 09:34 35.39320 51.23751 4583 ft 159 kts 287°
2026-04-21 09:34 35.39683 51.22469 4095 ft 161 kts 286°
2026-04-21 09:35 35.40046 51.21168 3611 ft 156 kts 292°
2026-04-21 09:35 35.40398 51.19962 3510 ft 151 kts 286°
2026-04-21 09:35 35.40707 51.18764 3573 ft 143 kts 294°
2026-04-21 09:35 35.41050 51.17640 3431 ft 141 kts 288°
2026-04-21 09:36 35.41340 51.16486 3296 ft 142 kts 290°
2026-04-21 09:36 35.41653 51.15389 3286 ft 121 kts 288°
2026-04-21 09:36 35.41868 51.14608 3293 ft 72 kts 289°
2026-04-21 09:36 35.41989 51.14186 3292 ft 44 kts 289°
2026-04-21 09:37 35.42051 51.13903 3299 ft 30 kts 279°
2026-04-21 09:37 35.42043 51.13682 3302 ft 21 kts 258°
2026-04-21 09:37 35.42019 51.13525 3305 ft 16 kts 261°
2026-04-21 09:37 35.41975 51.13440 3308 ft 9 kts 209°
2026-04-21 09:38 35.41911 51.13434 3307 ft 10 kts 161°
2026-04-21 09:38 35.41874 51.13509 3306 ft 12 kts 108°
2026-04-21 09:38 35.41844 51.13619 3303 ft 15 kts 109°
2026-04-21 09:38 35.41805 51.13757 3298 ft 19 kts 109°
2026-04-21 09:39 35.41758 51.13927 3293 ft 22 kts 108°
2026-04-21 09:39 35.41709 51.14108 3292 ft 23 kts 108°
2026-04-21 09:39 35.41657 51.14299 3291 ft 24 kts 110°
2026-04-21 09:39 35.41602 51.14489 3289 ft 24 kts 108°
2026-04-21 09:40 35.41547 51.14692 3287 ft 25 kts 109°
2026-04-21 09:40 35.41489 51.14899 3285 ft 26 kts 110°
2026-04-21 09:40 35.41428 51.15115 3282 ft 27 kts 108°
2026-04-21 09:40 35.41376 51.15189 3276 ft 10 kts 190°
2026-04-21 09:41 35.41305 51.15156 3276 ft 12 kts 201°
2026-04-21 09:41 35.41233 51.15141 3278 ft 10 kts 161°
2026-04-21 09:41 35.41202 51.15207 3280 ft 10 kts 106°
2026-04-21 09:41 35.41182 51.15293 3275 ft 11 kts 106°
2026-04-21 09:42 35.41160 51.15375 3278 ft 8 kts 111°
2026-04-21 09:42 35.41119 51.15392 3276 ft 7 kts 192°
2026-04-21 09:42 35.41090 51.15379 3278 ft 2 kts 200°
2026-04-21 09:42 35.41077 51.15374 3274 ft 2 kts 199°
2026-04-21 09:43 35.41070 51.15371 3274 ft 0 kts 198°